| time (UTC) | temp F | wind direction | speed MPH | gust MPH | rain 1hr in | rain 24hr in | rain mn in | humidity % | barometer mb |
| 20260506222029 | 57 | 242 | 6.0 | 8.0 | 0.14 | 0.19 | 0.19 | 98 | 1007.2 |
| 20260506221527 | 57 | 278 | 6.0 | 8.0 | 0.07 | 0.18 | 0.18 | 98 | 1007.3 |
| 20260506221025 | 57 | 275 | 6.0 | 12.0 | 0.02 | 0.17 | 0.17 | 98 | 1007.5 |
| 20260506220520 | 57 | 280 | 5.0 | 13.0 | 0.02 | 0.17 | 0.17 | 98 | 1007.6 |
| 20260506220016 | 57 | 238 | 5.0 | 9.0 | 0.00 | 0.17 | 0.17 | 98 | 1007.1 |
| 20260506215513 | 57 | 231 | 8.0 | 8.0 | 0.02 | 0.17 | 0.17 | 98 | 1007.3 |
| 20260506215009 | 57 | 260 | 10.0 | 10.0 | 0.02 | 0.17 | 0.17 | 98 | 1007.3 |
| 20260506214506 | 57 | 269 | 0.0 | 6.0 | 0.00 | 0.16 | 0.16 | 98 | 1007.5 |
| 20260506214003 | 57 | 276 | 8.0 | 11.0 | 0.00 | 0.16 | 0.16 | 97 | 1007.6 |
| 20260506213501 | 57 | 223 | 6.0 | 11.0 | 0.02 | 0.16 | 0.16 | 97 | 1007.6 |
| 20260506212958 | 57 | 195 | 5.0 | 14.0 | 0.02 | 0.16 | 0.16 | 97 | 1007.7 |
| 20260506212454 | 57 | 257 | 0.0 | 7.0 | 0.02 | 0.16 | 0.16 | 97 | 1007.7 |
| 20260506211949 | 57 | 252 | 5.0 | 10.0 | 0.07 | 0.16 | 0.16 | 97 | 1007.6 |
| 20260506211445 | 57 | 242 | 3.0 | 11.0 | 0.05 | 0.15 | 0.15 | 97 | 1007.8 |
| 20260506210943 | 57 | 187 | 5.0 | 6.0 | 0.05 | 0.15 | 0.15 | 97 | 1007.8 |
| 20260506210439 | 57 | 289 | 3.0 | 12.0 | 0.07 | 0.14 | 0.14 | 97 | 1007.9 |
| 20260506205936 | 57 | 138 | 2.0 | 11.0 | 0.07 | 0.14 | 0.14 | 97 | 1008.1 |
| 20260506205432 | 57 | 182 | 5.0 | 11.0 | 0.02 | 0.13 | 0.13 | 97 | 1008.0 |
| 20260506204928 | 58 | 135 | 7.0 | 7.0 | 0.02 | 0.13 | 0.13 | 97 | 1007.9 |
| 20260506204427 | 57 | 287 | 3.0 | 8.0 | 0.02 | 0.13 | 0.13 | 97 | 1008.0 |
| 20260506203924 | 58 | 193 | 0.0 | 6.0 | 0.00 | 0.12 | 0.12 | 97 | 1008.2 |
| 20260506203420 | 57 | 241 | 2.0 | 7.0 | 0.00 | 0.12 | 0.12 | 97 | 1008.0 |
| 20260506202918 | 57 | 195 | 0.0 | 7.0 | 0.00 | 0.12 | 0.12 | 97 | 1008.1 |
| 20260506202415 | 57 | 258 | 6.0 | 6.0 | 0.00 | 0.12 | 0.12 | 97 | 1008.1 |
| 20260506201911 | 57 | 137 | 5.0 | 9.0 | 0.00 | 0.12 | 0.12 | 96 | 1008.3 |
| 20260506201409 | 57 | 180 | 7.0 | 8.0 | 0.00 | 0.12 | 0.12 | 96 | 1008.1 |
| 20260506200905 | 57 | 179 | 0.0 | 14.0 | 0.00 | 0.12 | 0.12 | 96 | 1008.2 |
| 20260506200401 | 57 | 235 | 2.0 | 10.0 | 0.02 | 0.12 | 0.12 | 96 | 1008.3 |
| 20260506195858 | 57 | 261 | 4.0 | 16.0 | 0.02 | 0.12 | 0.12 | 96 | 1008.2 |
| 20260506195355 | 57 | 275 | 7.0 | 10.0 | 0.00 | 0.12 | 0.12 | 96 | 1008.6 |
| 20260506194851 | 57 | 116 | 0.0 | 10.0 | 0.00 | 0.12 | 0.12 | 96 | 1008.5 |
| 20260506194349 | 57 | 74 | 4.0 | 10.0 | 0.00 | 0.12 | 0.12 | 96 | 1008.4 |
| 20260506193846 | 57 | 223 | 7.0 | 15.0 | 0.00 | 0.12 | 0.12 | 96 | 1008.7 |
| 20260506193343 | 57 | 243 | 2.0 | 11.0 | 0.00 | 0.12 | 0.12 | 96 | 1008.4 |
| 20260506192839 | 57 | 264 | 5.0 | 21.0 | 0.02 | 0.12 | 0.12 | 96 | 1008.5 |
| 20260506192336 | 57 | 89 | 0.0 | 13.0 | 0.02 | 0.12 | 0.12 | 96 | 1008.4 |
| 20260506191833 | 57 | 205 | 5.0 | 20.0 | 0.02 | 0.11 | 0.11 | 96 | 1008.7 |
| 20260506191329 | 57 | 175 | 7.0 | 12.0 | 0.05 | 0.11 | 0.11 | 96 | 1008.6 |
| 20260506190826 | 57 | 209 | 7.0 | 13.0 | 0.05 | 0.11 | 0.11 | 96 | 1008.9 |
| 20260506190322 | 57 | 214 | 6.0 | 16.0 | 0.05 | 0.11 | 0.11 | 95 | 1008.8 |
| 20260506185820 | 57 | 227 | 5.0 | 19.0 | 0.07 | 0.10 | 0.10 | 95 | 1008.8 |
| 20260506185316 | 57 | 223 | 5.0 | 18.0 | 0.07 | 0.10 | 0.10 | 95 | 1008.7 |
| 20260506184814 | 58 | 282 | 8.0 | 19.0 | 0.05 | 0.09 | 0.09 | 95 | 1008.7 |
| 20260506184311 | 58 | 172 | 8.0 | 19.0 | 0.05 | 0.09 | 0.09 | 95 | 1008.9 |
| 20260506183808 | 58 | 190 | 7.0 | 9.0 | 0.05 | 0.08 | 0.08 | 95 | 1008.7 |
| 20260506183303 | 58 | 142 | 4.0 | 12.0 | 0.07 | 0.08 | 0.08 | 95 | 1008.6 |
| 20260506182800 | 59 | 127 | 3.0 | 9.0 | 0.09 | 0.07 | 0.07 | 95 | 1008.6 |
| 20260506182257 | 59 | 192 | 2.0 | 10.0 | 0.12 | 0.07 | 0.07 | 94 | 1008.9 |
| 20260506181755 | 59 | 185 | 2.0 | 7.0 | 0.12 | 0.06 | 0.06 | 94 | 1009.2 |
| 20260506181253 | 59 | 165 | 0.0 | 8.0 | 0.09 | 0.04 | 0.04 | 93 | 1009.2 |
| 20260506180750 | 60 | 150 | 2.0 | 11.0 | 0.07 | 0.03 | 0.03 | 92 | 1009.2 |
| 20260506180245 | 60 | 247 | 3.0 | 6.0 | 0.07 | 0.03 | 0.03 | 91 | 1009.6 |
| 20260506175742 | 60 | 212 | 11.0 | 11.0 | 0.05 | 0.02 | 0.02 | 90 | 1009.6 |
| 20260506175239 | 60 | 238 | 6.0 | 15.0 | 0.05 | 0.02 | 0.02 | 89 | 1009.7 |
| 20260506174737 | 60 | 191 | 6.0 | 6.0 | 0.05 | 0.01 | 0.01 | 88 | 1009.4 |
| 20260506174233 | 61 | 269 | 4.0 | 12.0 | 0.05 | 0.01 | 0.01 | 86 | 1009.7 |
| 20260506173732 | 62 | 232 | 8.0 | 13.0 | 0.02 | 0.00 | 0.00 | 84 | 1009.8 |
| 20260506173228 | 63 | 261 | 8.0 | 8.0 | 0.00 | 0.00 | 0.00 | 81 | 1010.0 |
| 20260506172725 | 64 | 2 | 5.0 | 18.0 | 0.00 | 0.00 | 0.00 | 80 | 1009.9 |
| 20260506172221 | 65 | 269 | 0.0 | 7.0 | 0.00 | 0.00 | 0.00 | 76 | 1009.7 |
| 20260506171719 | 66 | 190 | 6.0 | 9.0 | 0.00 | 0.00 | 0.00 | 72 | 1009.7 |
| 20260506171216 | 66 | 227 | 8.0 | 8.0 | 0.00 | 0.00 | 0.00 | 71 | 1009.9 |
| 20260506170713 | 67 | 283 | 5.0 | 17.0 | 0.00 | 0.00 | 0.00 | 68 | 1009.6 |
| 20260506170210 | 67 | 267 | 17.0 | 19.0 | 0.00 | 0.00 | 0.00 | 67 | 1009.2 |
| 20260506165709 | 67 | 283 | 13.0 | 19.0 | 0.00 | 0.00 | 0.00 | 67 | 1009.4 |
| 20260506165205 | 67 | 292 | 6.0 | 17.0 | 0.00 | 0.00 | 0.00 | 67 | 1009.3 |
| 20260506164702 | 68 | 34 | 2.0 | 7.0 | 0.00 | 0.00 | 0.00 | 66 | 1009.5 |
| 20260506164159 | 68 | 282 | 11.0 | 13.0 | 0.00 | 0.00 | 0.00 | 66 | 1009.4 |
| 20260506163655 | 68 | 247 | 11.0 | 13.0 | 0.00 | 0.00 | 0.00 | 66 | 1009.5 |
| 20260506163151 | 68 | 259 | 14.0 | 21.0 | 0.00 | 0.00 | 0.00 | 65 | 1009.7 |
| 20260506162647 | 69 | 233 | 7.0 | 17.0 | 0.00 | 0.00 | 0.00 | 64 | 1009.7 |
| 20260506162144 | 69 | 239 | 6.0 | 21.0 | 0.00 | 0.00 | 0.00 | 64 | 1009.7 |
| 20260506161642 | 68 | 255 | 7.0 | 12.0 | 0.00 | 0.00 | 0.00 | 64 | 1009.9 |
| 20260506161138 | 68 | 351 | 14.0 | 23.0 | 0.00 | 0.00 | 0.00 | 64 | 1009.8 |
| 20260506160636 | 68 | 318 | 10.0 | 23.0 | 0.00 | 0.00 | 0.00 | 64 | 1009.7 |
| 20260506160133 | 68 | 300 | 10.0 | 12.0 | 0.00 | 0.00 | 0.00 | 64 | 1010.0 |
| 20260506155632 | 68 | 234 | 11.0 | 12.0 | 0.00 | 0.00 | 0.00 | 64 | 1010.0 |
| 20260506155128 | 69 | 274 | 7.0 | 13.0 | 0.00 | 0.00 | 0.00 | 64 | 1010.1 |
| 20260506153230 | 69 | 214 | 7.0 | 22.0 | 0.00 | 0.00 | 0.00 | 64 | 1010.0 |
| 20260506152727 | 69 | 308 | 10.0 | 13.0 | 0.00 | 0.00 | 0.00 | 63 | 1010.2 |
| 20260506152224 | 69 | 275 | 3.0 | 12.0 | 0.00 | 0.00 | 0.00 | 65 | 1010.0 |
| 20260506151724 | 69 | 278 | 7.0 | 7.0 | 0.00 | 0.00 | 0.00 | 65 | 1010.5 |
| 20260506151220 | 68 | 277 | 7.0 | 9.0 | 0.00 | 0.00 | 0.00 | 67 | 1010.5 |
| 20260506150716 | 67 | 221 | 7.0 | 19.0 | 0.00 | 0.00 | 0.00 | 67 | 1010.3 |
| 20260506150213 | 67 | 260 | 5.0 | 9.0 | 0.00 | 0.00 | 0.00 | 68 | 1010.6 |
| 20260506145710 | 67 | 311 | 5.0 | 12.0 | 0.00 | 0.00 | 0.00 | 68 | 1010.8 |
| 20260506145207 | 67 | 54 | 4.0 | 29.0 | 0.00 | 0.00 | 0.00 | 67 | 1010.2 |
| 20260506144704 | 67 | 244 | 14.0 | 23.0 | 0.00 | 0.00 | 0.00 | 68 | 1010.9 |
| 20260506144201 | 67 | 304 | 7.0 | 14.0 | 0.00 | 0.00 | 0.00 | 68 | 1010.7 |
| 20260506143659 | 66 | 311 | 6.0 | 13.0 | 0.00 | 0.00 | 0.00 | 69 | 1010.9 |
| 20260506143156 | 66 | 257 | 4.0 | 17.0 | 0.00 | 0.00 | 0.00 | 70 | 1010.8 |
| 20260506142655 | 66 | 272 | 9.0 | 18.0 | 0.00 | 0.00 | 0.00 | 70 | 1010.9 |
| 20260506142152 | 66 | 252 | 4.0 | 9.0 | 0.00 | 0.00 | 0.00 | 70 | 1010.9 |
| 20260506141650 | 66 | 286 | 5.0 | 13.0 | 0.00 | 0.00 | 0.00 | 71 | 1010.9 |
| 20260506141148 | 66 | 29 | 4.0 | 9.0 | 0.00 | 0.00 | 0.00 | 71 | 1010.8 |
| 20260506140645 | 66 | 265 | 4.0 | 10.0 | 0.00 | 0.00 | 0.00 | 71 | 1010.8 |
| 20260506140142 | 66 | 273 | 7.0 | 8.0 | 0.00 | 0.00 | 0.00 | 72 | 1010.7 |
| 20260506135639 | 66 | 285 | 3.0 | 12.0 | 0.00 | 0.00 | 0.00 | 72 | 1010.6 |
| 20260506135135 | 66 | 269 | 6.0 | 11.0 | 0.00 | 0.00 | 0.00 | 72 | 1010.5 |
| 20260506134632 | 65 | 276 | 4.0 | 10.0 | 0.00 | 0.00 | 0.00 | 73 | 1010.3 |
| 20260506134127 | 65 | 272 | 0.0 | 20.0 | 0.00 | 0.00 | 0.00 | 74 | 1010.7 |
| 20260506133625 | 65 | 242 | 10.0 | 16.0 | 0.00 | 0.00 | 0.00 | 73 | 1010.7 |
| 20260506133122 | 65 | 274 | 9.0 | 9.0 | 0.00 | 0.00 | 0.00 | 74 | 1010.6 |
| 20260506132619 | 64 | 237 | 5.0 | 9.0 | 0.00 | 0.00 | 0.00 | 75 | 1010.8 |
| 20260506132116 | 64 | 282 | 3.0 | 13.0 | 0.00 | 0.00 | 0.00 | 76 | 1010.8 |
| 20260506131614 | 64 | 284 | 6.0 | 7.0 | 0.00 | 0.00 | 0.00 | 77 | 1010.8 |
| 20260506131110 | 63 | 223 | 5.0 | 16.0 | 0.00 | 0.00 | 0.00 | 78 | 1010.7 |
| 20260506130607 | 63 | 251 | 5.0 | 12.0 | 0.00 | 0.00 | 0.00 | 78 | 1011.2 |
| 20260506130105 | 63 | 230 | 7.0 | 20.0 | 0.00 | 0.00 | 0.00 | 79 | 1011.3 |
| 20260506125603 | 62 | 275 | 7.0 | 10.0 | 0.00 | 0.00 | 0.00 | 80 | 1011.2 |
| 20260506125100 | 62 | 250 | 7.0 | 16.0 | 0.00 | 0.00 | 0.00 | 79 | 1011.2 |
| 20260506124557 | 62 | 268 | 5.0 | 8.0 | 0.00 | 0.00 | 0.00 | 80 | 1011.3 |
| 20260506124055 | 61 | 246 | 10.0 | 16.0 | 0.00 | 0.00 | 0.00 | 82 | 1011.2 |
| 20260506123553 | 61 | 250 | 6.0 | 15.0 | 0.00 | 0.00 | 0.00 | 82 | 1011.3 |
| 20260506123051 | 61 | 180 | 3.0 | 9.0 | 0.00 | 0.00 | 0.00 | 82 | 1011.1 |
| 20260506122547 | 61 | 255 | 2.0 | 8.0 | 0.00 | 0.00 | 0.00 | 82 | 1011.3 |
| 20260506122046 | 61 | 197 | 9.0 | 12.0 | 0.00 | 0.00 | 0.00 | 81 | 1011.5 |
| 20260506121543 | 61 | 218 | 8.0 | 15.0 | 0.00 | 0.00 | 0.00 | 81 | 1011.3 |
| 20260506121038 | 61 | 231 | 7.0 | 12.0 | 0.00 | 0.00 | 0.00 | 81 | 1011.4 |
| 20260506120537 | 60 | 241 | 5.0 | 10.0 | 0.00 | 0.00 | 0.00 | 83 | 1011.4 |
| 20260506120034 | 60 | 198 | 6.0 | 11.0 | 0.00 | 0.00 | 0.00 | 84 | 1011.6 |
| 20260506115532 | 60 | 249 | 9.0 | 10.0 | 0.00 | 0.00 | 0.00 | 83 | 1011.3 |
| 20260506115030 | 60 | 225 | 4.0 | 12.0 | 0.00 | 0.00 | 0.00 | 83 | 1011.4 |
| 20260506114527 | 60 | 174 | 4.0 | 12.0 | 0.00 | 0.00 | 0.00 | 83 | 1011.2 |
| 20260506114026 | 59 | 254 | 2.0 | 18.0 | 0.00 | 0.00 | 0.00 | 84 | 1011.1 |
| 20260506113523 | 59 | 180 | 14.0 | 15.0 | 0.00 | 0.00 | 0.00 | 85 | 1011.2 |
| 20260506113020 | 59 | 252 | 4.0 | 11.0 | 0.00 | 0.00 | 0.00 | 85 | 1011.4 |
| 20260506112516 | 59 | 305 | 7.0 | 7.0 | 0.00 | 0.00 | 0.00 | 86 | 1011.7 |
| 20260506112014 | 58 | 325 | 3.0 | 11.0 | 0.00 | 0.00 | 0.00 | 87 | 1011.4 |
| 20260506111512 | 58 | 233 | 3.0 | 12.0 | 0.00 | 0.00 | 0.00 | 87 | 1011.3 |
| 20260506111009 | 58 | 321 | 5.0 | 7.0 | 0.00 | 0.00 | 0.00 | 87 | 1011.5 |
| 20260506110507 | 58 | 241 | 6.0 | 17.0 | 0.00 | 0.00 | 0.00 | 87 | 1011.7 |
| 20260506110004 | 58 | 231 | 6.0 | 11.0 | 0.00 | 0.00 | 0.00 | 86 | 1012.0 |
| 20260506105459 | 58 | 212 | 5.0 | 11.0 | 0.00 | 0.00 | 0.00 | 86 | 1012.1 |
| 20260506104957 | 58 | 222 | 6.0 | 17.0 | 0.00 | 0.00 | 0.00 | 87 | 1011.5 |
| 20260506104455 | 58 | 245 | 5.0 | 7.0 | 0.00 | 0.00 | 0.00 | 87 | 1011.5 |
| 20260506103953 | 57 | 225 | 14.0 | 25.0 | 0.00 | 0.00 | 0.00 | 87 | 1011.5 |
| 20260506103449 | 57 | 242 | 0.0 | 8.0 | 0.00 | 0.00 | 0.00 | 88 | 1011.5 |
| 20260506102946 | 57 | 269 | 3.0 | 12.0 | 0.00 | 0.00 | 0.00 | 88 | 1011.3 |
| 20260506102444 | 57 | 207 | 7.0 | 14.0 | 0.00 | 0.00 | 0.00 | 88 | 1011.5 |
| 20260506101941 | 57 | 232 | 6.0 | 14.0 | 0.00 | 0.00 | 0.00 | 88 | 1011.3 |
| 20260506101438 | 57 | 293 | 7.0 | 20.0 | 0.00 | 0.00 | 0.00 | 87 | 1011.4 |
| 20260506100935 | 57 | 290 | 5.0 | 23.0 | 0.00 | 0.00 | 0.00 | 87 | 1011.3 |
| 20260506100433 | 57 | 247 | 7.0 | 24.0 | 0.00 | 0.00 | 0.00 | 87 | 1011.3 |
| 20260506095931 | 57 | 227 | 13.0 | 18.0 | 0.00 | 0.00 | 0.00 | 86 | 1011.4 |
| 20260506095429 | 57 | 299 | 6.0 | 10.0 | 0.00 | 0.00 | 0.00 | 87 | 1011.3 |
| 20260506094925 | 57 | 166 | 8.0 | 11.0 | 0.00 | 0.00 | 0.00 | 87 | 1011.2 |
| 20260506094424 | 57 | 278 | 4.0 | 12.0 | 0.00 | 0.00 | 0.00 | 86 | 1011.0 |
| 20260506093921 | 57 | 85 | 13.0 | 13.0 | 0.00 | 0.00 | 0.00 | 86 | 1011.2 |
| 20260506093419 | 57 | 268 | 4.0 | 11.0 | 0.00 | 0.00 | 0.00 | 86 | 1011.3 |
| 20260506092917 | 57 | 185 | 3.0 | 8.0 | 0.00 | 0.00 | 0.00 | 86 | 1011.3 |
| 20260506092415 | 58 | 184 | 5.0 | 15.0 | 0.00 | 0.00 | 0.00 | 85 | 1011.6 |
| 20260506091911 | 58 | 8 | 0.0 | 13.0 | 0.00 | 0.00 | 0.00 | 85 | 1011.1 |
| 20260506091409 | 58 | 256 | 5.0 | 11.0 | 0.00 | 0.00 | 0.00 | 85 | 1011.0 |
| 20260506090906 | 58 | 241 | 4.0 | 16.0 | 0.00 | 0.00 | 0.00 | 84 | 1011.0 |
| 20260506090403 | 58 | 211 | 7.0 | 11.0 | 0.00 | 0.00 | 0.00 | 85 | 1011.4 |
| 20260506085900 | 58 | 228 | 10.0 | 10.0 | 0.00 | 0.00 | 0.00 | 84 | 1011.2 |
| 20260506085356 | 58 | 207 | 11.0 | 11.0 | 0.00 | 0.00 | 0.00 | 84 | 1011.4 |
| 20260506084853 | 58 | 220 | 6.0 | 18.0 | 0.00 | 0.00 | 0.00 | 84 | 1011.4 |
| 20260506084350 | 58 | 216 | 5.0 | 11.0 | 0.00 | 0.00 | 0.00 | 84 | 1011.5 |
| 20260506083846 | 58 | 239 | 5.0 | 11.0 | 0.00 | 0.00 | 0.00 | 84 | 1011.4 |
| 20260506083344 | 58 | 200 | 0.0 | 10.0 | 0.00 | 0.00 | 0.00 | 84 | 1011.4 |
| 20260506082841 | 58 | 210 | 5.0 | 13.0 | 0.00 | 0.00 | 0.00 | 84 | 1011.3 |
| 20260506082338 | 58 | 244 | 5.0 | 7.0 | 0.00 | 0.00 | 0.00 | 84 | 1011.3 |
| 20260506081833 | 58 | 137 | 2.0 | 15.0 | 0.00 | 0.00 | 0.00 | 84 | 1011.4 |
| 20260506081332 | 58 | 52 | 3.0 | 9.0 | 0.00 | 0.00 | 0.00 | 83 | 1011.4 |
| 20260506080829 | 58 | 244 | 9.0 | 9.0 | 0.00 | 0.00 | 0.00 | 83 | 1011.4 |
| 20260506080325 | 58 | 178 | 9.0 | 11.0 | 0.00 | 0.00 | 0.00 | 83 | 1011.3 |
| 20260506073310 | 58 | 165 | 7.0 | 13.0 | 0.00 | 0.00 | 0.00 | 82 | 1011.4 |
| 20260506072806 | 58 | 212 | 7.0 | 12.0 | 0.00 | 0.00 | 0.00 | 82 | 1011.4 |
| 20260506072305 | 58 | 225 | 7.0 | 12.0 | 0.00 | 0.00 | 0.00 | 82 | 1011.4 |
| 20260506071801 | 58 | 262 | 11.0 | 13.0 | 0.00 | 0.00 | 0.00 | 82 | 1011.5 |
| 20260506071300 | 59 | 243 | 11.0 | 20.0 | 0.00 | 0.00 | 0.00 | 82 | 1011.1 |
| 20260506070756 | 58 | 237 | 9.0 | 12.0 | 0.00 | 0.00 | 0.00 | 82 | 1011.4 |
| 20260506070253 | 58 | 267 | 5.0 | 13.0 | 0.00 | 0.00 | 0.00 | 82 | 1011.3 |
| 20260506062230 | 59 | 259 | 9.0 | 12.0 | 0.00 | 0.00 | 0.00 | 80 | 1011.2 |
| 20260506061726 | 59 | 225 | 2.0 | 25.0 | 0.00 | 0.00 | 0.00 | 80 | 1011.2 |
| 20260506061224 | 59 | 191 | 0.0 | 13.0 | 0.00 | 0.00 | 0.00 | 79 | 1011.2 |
| 20260506060722 | 60 | 278 | 5.0 | 17.0 | 0.00 | 0.00 | 0.00 | 79 | 1011.1 |
| 20260506060219 | 60 | 226 | 11.0 | 14.0 | 0.00 | 0.00 | 0.00 | 79 | 1011.3 |
| 20260506051151 | 61 | 275 | 6.0 | 10.0 | 0.00 | 0.00 | 0.00 | 74 | 1011.5 |
| 20260506050649 | 61 | 266 | 5.0 | 12.0 | 0.00 | 0.00 | 0.00 | 74 | 1011.4 |
| 20260506050146 | 61 | 256 | 5.0 | 9.0 | 0.00 | 0.00 | 0.00 | 73 | 1011.6 |
| 20260506044637 | 61 | 320 | 9.0 | 17.0 | 0.00 | 0.00 | 0.00 | 72 | 1011.7 |
| 20260506044134 | 61 | 279 | 5.0 | 20.0 | 0.00 | 0.00 | 0.00 | 72 | 1011.6 |
| 20260506043631 | 61 | 328 | 7.0 | 14.0 | 0.00 | 0.00 | 0.00 | 71 | 1011.9 |
| 20260506043129 | 61 | 241 | 11.0 | 11.0 | 0.00 | 0.00 | 0.00 | 72 | 1011.5 |
| 20260506042628 | 61 | 198 | 5.0 | 11.0 | 0.00 | 0.00 | 0.00 | 71 | 1011.9 |
| 20260506042125 | 61 | 206 | 7.0 | 15.0 | 0.00 | 0.00 | 0.00 | 71 | 1011.6 |
| 20260506041624 | 61 | 248 | 11.0 | 11.0 | 0.00 | 0.00 | 0.00 | 71 | 1011.7 |
| 20260506041120 | 61 | 276 | 7.0 | 10.0 | 0.00 | 0.00 | 0.00 | 71 | 1011.5 |
| 20260506040618 | 61 | 286 | 4.0 | 13.0 | 0.00 | 0.00 | 0.00 | 70 | 1011.9 |
| 20260506040114 | 61 | 293 | 5.0 | 16.0 | 0.00 | 0.00 | 0.00 | 70 | 1011.5 |
| 20260506035611 | 61 | 215 | 8.0 | 13.0 | 0.00 | 0.00 | 0.00 | 70 | 1011.7 |
| 20260506035108 | 61 | 215 | 17.0 | 20.0 | 0.00 | 0.00 | 0.00 | 70 | 1011.7 |
| 20260506034605 | 61 | 243 | 8.0 | 10.0 | 0.00 | 0.00 | 0.00 | 70 | 1011.5 |
| 20260506034102 | 61 | 331 | 3.0 | 13.0 | 0.00 | 0.00 | 0.00 | 70 | 1011.6 |
| 20260506033559 | 61 | 236 | 10.0 | 14.0 | 0.00 | 0.00 | 0.00 | 70 | 1011.6 |
| 20260506033056 | 61 | 267 | 7.0 | 13.0 | 0.00 | 0.00 | 0.00 | 70 | 1011.7 |
| 20260506032553 | 61 | 241 | 11.0 | 18.0 | 0.00 | 0.00 | 0.00 | 70 | 1011.7 |
| 20260506032050 | 61 | 240 | 7.0 | 9.0 | 0.00 | 0.00 | 0.00 | 70 | 1011.7 |
| 20260506031548 | 61 | 257 | 8.0 | 10.0 | 0.00 | 0.00 | 0.00 | 70 | 1011.7 |
| 20260506031044 | 61 | 267 | 6.0 | 18.0 | 0.00 | 0.00 | 0.00 | 70 | 1011.6 |
| 20260506030543 | 60 | 304 | 7.0 | 12.0 | 0.00 | 0.00 | 0.00 | 71 | 1011.4 |
| 20260506030040 | 61 | 227 | 8.0 | 13.0 | 0.00 | 0.00 | 0.00 | 70 | 1011.9 |
| 20260506025537 | 61 | 204 | 6.0 | 11.0 | 0.00 | 0.00 | 0.00 | 70 | 1011.7 |
| 20260506025032 | 60 | 197 | 3.0 | 9.0 | 0.00 | 0.00 | 0.00 | 71 | 1011.7 |
| 20260506024530 | 61 | 226 | 5.0 | 11.0 | 0.00 | 0.00 | 0.00 | 70 | 1011.5 |
| 20260506024026 | 61 | 179 | 8.0 | 11.0 | 0.00 | 0.00 | 0.00 | 70 | 1011.7 |
| 20260506023522 | 61 | 165 | 2.0 | 10.0 | 0.00 | 0.00 | 0.00 | 70 | 1011.7 |
| 20260506023020 | 60 | 231 | 11.0 | 19.0 | 0.00 | 0.00 | 0.00 | 70 | 1011.7 |
| 20260506022517 | 61 | 170 | 7.0 | 9.0 | 0.00 | 0.00 | 0.00 | 69 | 1011.7 |
| 20260506022015 | 60 | 114 | 5.0 | 8.0 | 0.00 | 0.00 | 0.00 | 70 | 1011.7 |
| 20260506021512 | 61 | 239 | 8.0 | 8.0 | 0.00 | 0.00 | 0.00 | 69 | 1011.6 |
| 20260506021009 | 61 | 227 | 13.0 | 13.0 | 0.00 | 0.00 | 0.00 | 69 | 1011.5 |
| 20260506020507 | 61 | 93 | 4.0 | 22.0 | 0.00 | 0.00 | 0.00 | 68 | 1011.6 |
| 20260506020004 | 61 | 192 | 7.0 | 13.0 | 0.00 | 0.00 | 0.00 | 68 | 1011.9 |
| 20260506015501 | 61 | 260 | 6.0 | 12.0 | 0.00 | 0.00 | 0.00 | 68 | 1011.4 |
| 20260506014958 | 61 | 161 | 8.0 | 17.0 | 0.00 | 0.00 | 0.00 | 67 | 1012.0 |
| 20260506014455 | 61 | 85 | 5.0 | 11.0 | 0.00 | 0.00 | 0.00 | 67 | 1011.5 |
| 20260506013951 | 62 | 258 | 6.0 | 17.0 | 0.00 | 0.00 | 0.00 | 66 | 1011.6 |
| 20260506013449 | 62 | 196 | 7.0 | 12.0 | 0.00 | 0.00 | 0.00 | 66 | 1011.3 |
| 20260506012945 | 62 | 211 | 5.0 | 17.0 | 0.00 | 0.00 | 0.00 | 65 | 1011.2 |
| 20260506012442 | 62 | 256 | 5.0 | 11.0 | 0.00 | 0.00 | 0.00 | 65 | 1011.3 |
| 20260506011939 | 63 | 168 | 2.0 | 14.0 | 0.00 | 0.00 | 0.00 | 64 | 1011.2 |
| 20260506011436 | 63 | 157 | 3.0 | 11.0 | 0.00 | 0.00 | 0.00 | 65 | 1011.0 |
| 20260506010933 | 63 | 249 | 10.0 | 10.0 | 0.00 | 0.00 | 0.00 | 64 | 1011.1 |
| 20260506010432 | 63 | 248 | 3.0 | 10.0 | 0.00 | 0.00 | 0.00 | 63 | 1011.0 |
| 20260506005927 | 64 | 269 | 0.0 | 15.0 | 0.00 | 0.00 | 0.00 | 64 | 1010.9 |
| 20260506005426 | 64 | 220 | 7.0 | 15.0 | 0.00 | 0.00 | 0.00 | 63 | 1010.8 |
| 20260506004920 | 64 | 255 | 5.0 | 12.0 | 0.00 | 0.00 | 0.00 | 63 | 1010.9 |
| 20260506004419 | 64 | 254 | 6.0 | 12.0 | 0.00 | 0.00 | 0.00 | 63 | 1010.9 |
| 20260506003914 | 64 | 253 | 6.0 | 14.0 | 0.00 | 0.00 | 0.00 | 63 | 1010.9 |
| 20260506003411 | 64 | 214 | 11.0 | 13.0 | 0.00 | 0.00 | 0.00 | 63 | 1010.6 |
| 20260506002908 | 64 | 301 | 5.0 | 11.0 | 0.00 | 0.00 | 0.00 | 63 | 1010.6 |
| 20260506002404 | 64 | 256 | 10.0 | 16.0 | 0.00 | 0.00 | 0.00 | 62 | 1010.3 |
| 20260506001859 | 65 | 234 | 6.0 | 11.0 | 0.00 | 0.00 | 0.00 | 62 | 1010.1 |
| 20260506001356 | 65 | 255 | 6.0 | 16.0 | 0.00 | 0.00 | 0.00 | 61 | 1010.5 |
| 20260506000853 | 65 | 216 | 8.0 | 12.0 | 0.00 | 0.00 | 0.00 | 61 | 1010.4 |
| 20260506000354 | 65 | 4 | 10.0 | 13.0 | 0.00 | 0.00 | 0.00 | 61 | 1010.3 |
| 20260505235848 | 65 | 281 | 7.0 | 13.0 | 0.00 | 0.00 | 0.00 | 61 | 1010.2 |
| 20260505235346 | 66 | 254 | 5.0 | 13.0 | 0.00 | 0.00 | 0.00 | 60 | 1010.2 |
| 20260505234842 | 66 | 231 | 6.0 | 14.0 | 0.00 | 0.00 | 0.00 | 59 | 1010.2 |
| 20260505234340 | 66 | 208 | 8.0 | 13.0 | 0.00 | 0.00 | 0.00 | 59 | 1010.0 |
| 20260505233837 | 67 | 260 | 8.0 | 11.0 | 0.00 | 0.00 | 0.00 | 58 | 1009.9 |
| 20260505233335 | 67 | 251 | 6.0 | 13.0 | 0.00 | 0.00 | 0.00 | 57 | 1009.7 |
| 20260505232832 | 67 | 246 | 7.0 | 10.0 | 0.00 | 0.00 | 0.00 | 57 | 1009.8 |
| 20260505232330 | 68 | 247 | 7.0 | 11.0 | 0.00 | 0.00 | 0.00 | 56 | 1009.7 |
| 20260505231826 | 68 | 237 | 5.0 | 13.0 | 0.00 | 0.00 | 0.00 | 55 | 1009.7 |
| 20260505231324 | 68 | 235 | 4.0 | 11.0 | 0.00 | 0.00 | 0.00 | 54 | 1009.6 |
| 20260505230822 | 68 | 277 | 4.0 | 26.0 | 0.00 | 0.00 | 0.00 | 54 | 1009.6 |
| 20260505230318 | 69 | 254 | 7.0 | 13.0 | 0.00 | 0.00 | 0.00 | 54 | 1009.6 |
| 20260505225815 | 69 | 218 | 6.0 | 19.0 | 0.00 | 0.00 | 0.00 | 54 | 1009.3 |
| 20260505225313 | 69 | 258 | 3.0 | 10.0 | 0.00 | 0.00 | 0.00 | 53 | 1009.2 |
| 20260505224807 | 69 | 275 | 10.0 | 21.0 | 0.00 | 0.00 | 0.00 | 52 | 1009.3 |
| 20260505224306 | 70 | 234 | 8.0 | 14.0 | 0.00 | 0.00 | 0.00 | 52 | 1009.2 |
| 20260505223802 | 70 | 272 | 7.0 | 10.0 | 0.00 | 0.00 | 0.00 | 52 | 1009.2 |
| 20260505223259 | 70 | 174 | 4.0 | 20.0 | 0.00 | 0.00 | 0.00 | 52 | 1009.1 |
| 20260505222755 | 71 | 215 | 6.0 | 8.0 | 0.00 | 0.00 | 0.00 | 51 | 1009.2 |
| 20260505222251 | 71 | 246 | 8.0 | 25.0 | 0.00 | 0.00 | 0.00 | 51 | 1009.0 |